Regional Weather Roundup
Issued by NWS Green Bay, WI

Home | Current Version | Previous Version | Graphics & Text | Print | Product List | Glossary Off
Versions: 1 2 3 4 5 6 7 8 9 10 11 12 13 14 15 16 17 18 19 20 21 22 23 24 25 26 27 28 29 30 31 32 33 34 35 36 37 38 39 40 41 42 43 44 45 46 47 48 49 50

000
ASUS43 KGRB 011200
RWRGRB

NORTH-CENTRAL AND NORTHEAST WISCONSIN REGIONAL WEATHER ROUNDUP
NATIONAL WEATHER SERVICE GREEN BAY WI
700 AM CDT WED JUL 01 2015

WIZ005-009-010>012-018-019-011300-
NORTH CENTRAL WISCONSIN

CITY           SKY/WX    TMP DP  RH WIND       PRES   REMARKS
IRONWOOD       SUNNY     43  43 100 CALM      30.01R
MANITOWISH WTR NOT AVBL
ARBOR VITAE    NOT AVBL
EAGLE RIVER    NOT AVBL
LAND O LAKES   NOT AVBL
RHINELANDER    MOSUNNY   47  43  86 N3        30.02R
PHILLIPS       PTSUNNY   43  43  99 CALM      30.03R
ANTIGO         NOT AVBL
TOMAHAWK       NOT AVBL
MERRILL        NOT AVBL
$$

WIZ013-073-011300-
NORTHEAST WISCONSIN

CITY           SKY/WX    TMP DP  RH WIND       PRES   REMARKS
IRON MOUNTAIN  SUNNY     47  42  83 N8        29.98R
MARINETTE      CLOUDY    48  43  81 N7        29.97R
OCONTO         CLOUDY    48  46  90 N7        29.98R
$$

WIZ017-030-035>037-045-011300-
CENTRAL WISCONSIN

CITY           SKY/WX    TMP DP  RH WIND       PRES   REMARKS
MEDFORD        NOT AVBL
WAUSAU         SUNNY     49  46  90 NW5       29.99R
MOSINEE        NOT AVBL
MARSHFIELD     SUNNY     50  45  83 N3        30.01R
WISC RAPIDS    SUNNY     52  47  83 N6        30.01R
STEVENS POINT  NOT AVBL
WAUPACA        NOT AVBL
SHAWANO        NOT AVBL
CLINTONVILLE   NOT AVBL
$$

WIZ038-039-048-051-011300-
FOX VALLEY

CITY           SKY/WX    TMP DP  RH WIND       PRES   REMARKS
NWS GREEN BAY  CLOUDY    51  45  79 N9        29.97S
APPLETON       PTSUNNY   48  43  81 N7        29.97S
OSHKOSH        MOSUNNY   53  44  71 N10       29.97R
FOND DU LAC    MOSUNNY   53  45  74 NW10      29.96F
$$

WIZ022-050-052-011300-
EAST CENTRAL WISCONSIN

CITY           SKY/WX    TMP DP  RH WIND       PRES   REMARKS
STURGEON BAY   CLOUDY    52  46  82 N9        29.98S
MANITOWOC      NOT AVBL
SHEBOYGAN      CLOUDY    52  47  83 N6        29.95F
$$

LMZ563-521-522-541>543-011300-
LAKESHORE

STATION/POSITION TIME  TEMP    WIND        PRES    VSBY  WAVE
                       AIR SEA DIR/SP/G                  HT/PER
                 (UTC) (F)     (DEG/KT/KT) (MB)    (MI)  (FT/S)
SHEBOYGAN LKSHOR 1100   52     300/  8/  9 1014.8R
KEWAUNEE LKSHORE 1100   54     330/  4/  7 1013.6R
ALGOMA MARINA    1055          320/  4/  6   N/A
NORTHPORT PIER   1100   52     340/ 15/ 18 1014.2R
N MID LAKE BUOY  1050   45 40  330/  8/ 10 1013.4R         2/ 4
SISTER BAY LKSHO 1114   51      10/ 11/ 16   N/A
CHAMBERS ISLAND  1100   52     330/ 12/ 15 1014.6R
MENOMINEE LKSHOR 1100   50     300/  5/ 10 1015.2R
$$



USA.gov is the U.S. government's official web portal to all federal, state and local government web resources and services.